Methuen, Massachusetts, United States (01844)
Lat: 42.73N, Lon: 71.19W
Wx Zone: MAZ006
Local Info
Past Weather Observations for Thursday, October 23, 2014

NOTE: This archive is for the closest National Weather Service station to Methuen. Information may differ from the station used for current weather conditions.

Click here for Long-term Archive

Time Weather Temperature Dewpoint Humidity Pressure Winds Precip Visibility
23:54
Overcast
Light Rain
48°F / 9°C 46°F / 8°C 94% 29.68 in
(1005 mb)
N 13.8 mph
(N 22 kph)
0.01 in
(0.25 mm)
6SM
23:36
Overcast
Light Rain
48°F / 9°C 46°F / 8°C 94% 29.71 in
(1006 mb)
N 16.1 mph
(N 26 kph)
0.00 in
(0.00 mm)
4SM
22:54
Overcast
50°F / 10°C 46°F / 8°C 88% 29.71 in
(1006 mb)
N 13.8 mph
(N 22 kph)
0.00 in
(0.00 mm)
10SM
21:54
Overcast
Light Rain
50°F / 10°C 48°F / 9°C 94% 29.71 in
(1006 mb)
N 13.8 mph
(N 22 kph)
0.00 in
(0.00 mm)
6SM
20:54
Overcast
50°F / 10°C 48°F / 9°C 94% 29.71 in
(1006 mb)
N 16.1 mph
(N 26 kph)
0.00 in
(0.00 mm)
10SM
19:54
Overcast
Light Rain
50°F / 10°C 48°F / 9°C 94% 29.71 in
(1006 mb)
N 12.7 mph
(N 20 kph)
0.00 in
(0.00 mm)
10SM
18:54
Overcast
52°F / 11°C 48°F / 9°C 88% 29.71 in
(1006 mb)
NNE 18.4 mph
(NNE 30 kph)
0.00 in
(0.00 mm)
10SM
18:12
Overcast
52°F / 11°C 48°F / 9°C 88% 29.71 in
(1006 mb)
NNE 17.3 mph
(NNE 28 kph)
0.00 in
(0.00 mm)
10SM
17:54
Overcast
Light Rain
52°F / 11°C 48°F / 9°C 88% 29.71 in
(1006 mb)
N 17.3 mph
(N 28 kph)
0.00 in
(0.00 mm)
9SM
16:54
Overcast
Light Rain
52°F / 11°C 48°F / 9°C 88% 29.68 in
(1005 mb)
NNE 20.7 mph
(NNE 33 kph)
0.00 in
(0.00 mm)
4SM
16:10
Overcast
Fog And Mist
52°F / 11°C 50°F / 10°C 94% 29.68 in
(1005 mb)
NNE 17.3 mph
(NNE 28 kph)
- 4SM
15:54
Overcast
52°F / 11°C 50°F / 10°C 94% 29.68 in
(1005 mb)
NNE 18.4 mph
(NNE 30 kph)
0.00 in
(0.00 mm)
8SM
14:54
Overcast
52°F / 11°C 50°F / 10°C 94% 29.65 in
(1004 mb)
NNE 19.6 mph
(NNE 32 kph)
0.00 in
(0.00 mm)
10SM
13:54
Overcast
Light Rain
52°F / 11°C 50°F / 10°C 94% 29.65 in
(1004 mb)
NNE 19.6 mph
(NNE 32 kph)
0.08 in
(2.03 mm)
4SM
13:52
Overcast
Light Rain
52°F / 11°C 50°F / 10°C 94% 29.65 in
(1004 mb)
NE 18.4 mph
(NE 30 kph)
0.07 in
(1.78 mm)
4SM
13:31
Overcast
Rain
52°F / 11°C 50°F / 10°C 94% 29.65 in
(1004 mb)
NNE 21.9 mph
(NNE 35 kph)
0.04 in
(1.02 mm)
2 1/2SM
12:54
Overcast
Light Rain
54°F / 12°C 50°F / 10°C 88% 29.65 in
(1004 mb)
NNE 18.4 mph
(NNE 30 kph)
0.02 in
(0.51 mm)
4SM
12:20
Overcast
Light Rain
52°F / 11°C 50°F / 10°C 94% 29.65 in
(1004 mb)
NE 23 mph
(NE 37 kph)
0.01 in
(0.25 mm)
4SM
12:04
Overcast
Light Rain
52°F / 11°C 50°F / 10°C 94% 29.65 in
(1004 mb)
NE 20.7 mph
(NE 33 kph)
0.01 in
(0.25 mm)
2 1/2SM
12:01
Overcast
Light Rain
52°F / 11°C 50°F / 10°C 94% 29.65 in
(1004 mb)
NNE 20.7 mph
(NNE 33 kph)
0.00 in
(0.00 mm)
3SM
11:54
Overcast
Light Rain
52°F / 11°C 50°F / 10°C 94% 29.65 in
(1004 mb)
NNE 24.2 mph
(NNE 39 kph)
0.02 in
(0.51 mm)
4SM
10:54
Overcast
54°F / 12°C 50°F / 10°C 88% 29.68 in
(1005 mb)
NNE 26.5 mph
(NNE 43 kph)
0.00 in
(0.00 mm)
10SM
10:18
Overcast
52°F / 11°C 48°F / 9°C 88% 29.68 in
(1005 mb)
NNE 20.7 mph
(NNE 33 kph)
0.00 in
(0.00 mm)
10SM
09:54
Overcast
Light Rain
52°F / 11°C 48°F / 9°C 88% 29.68 in
(1005 mb)
NNE 16.1 mph
(NNE 26 kph)
0.14 in
(3.56 mm)
10SM
09:43
Overcast
Light Rain
50°F / 10°C 48°F / 9°C 94% 29.71 in
(1006 mb)
NNE 17.3 mph
(NNE 28 kph)
0.14 in
(3.56 mm)
5SM
09:22
Overcast
Light Rain
50°F / 10°C 48°F / 9°C 94% 29.68 in
(1005 mb)
N 17.3 mph
(N 28 kph)
0.13 in
(3.30 mm)
4SM
08:54
Overcast
Heavy Rain
48°F / 9°C 48°F / 9°C 100% 29.74 in
(1007 mb)
N 10.4 mph
(N 17 kph)
0.43 in
(10.92 mm)
2 1/2SM
08:47
Overcast
Heavy Rain
50°F / 10°C 48°F / 9°C 94% 29.74 in
(1007 mb)
N 11.5 mph
(N 19 kph)
0.39 in
(9.91 mm)
2SM
08:29
Overcast
Heavy Rain
48°F / 9°C 48°F / 9°C 100% 29.74 in
(1007 mb)
N 6.9 mph
(N 11 kph)
0.24 in
(6.10 mm)
1 3/4SM
08:23
Overcast
Heavy Rain
48°F / 9°C 48°F / 9°C 100% 29.74 in
(1007 mb)
N 6.9 mph
(N 11 kph)
0.20 in
(5.08 mm)
2SM
08:16
Overcast
Heavy Rain
48°F / 9°C 48°F / 9°C 100% 29.74 in
(1007 mb)
N 8.1 mph
(N 13 kph)
0.15 in
(3.81 mm)
2SM
07:54
Overcast
Heavy Rain
50°F / 10°C 48°F / 9°C 94% 29.74 in
(1007 mb)
NNW 5.8 mph
(NNW 9 kph)
0.40 in
(10.16 mm)
1 3/4SM
07:50
Overcast
Rain
50°F / 10°C 48°F / 9°C 94% 29.74 in
(1007 mb)
Variable 5.8 mph
(Variable 9 kph)
0.38 in
(9.65 mm)
2 1/2SM
07:31
Overcast
Heavy Rain
50°F / 10°C 48°F / 9°C 94% 29.74 in
(1007 mb)
Variable 4.6 mph
(Variable 7 kph)
0.27 in
(6.86 mm)
1 1/2SM
07:16
Overcast
Heavy Rain
50°F / 10°C 48°F / 9°C 94% 29.74 in
(1007 mb)
Variable 4.6 mph
(Variable 7 kph)
0.17 in
(4.32 mm)
2SM
06:54
Overcast
Heavy Rain
50°F / 10°C 46°F / 8°C 88% 29.74 in
(1007 mb)
N 6.9 mph
(N 11 kph)
0.57 in
(14.48 mm)
1 3/4SM
06:36
Overcast
Heavy Rain
48°F / 9°C 46°F / 8°C 94% 29.74 in
(1007 mb)
NNW 5.8 mph
(NNW 9 kph)
0.41 in
(10.41 mm)
3SM
06:26
Overcast
Heavy Rain
48°F / 9°C 48°F / 9°C 100% 29.74 in
(1007 mb)
Variable 4.6 mph
(Variable 7 kph)
0.32 in
(8.13 mm)
1 3/4SM
06:18
Overcast
Heavy Rain
48°F / 9°C 48°F / 9°C 100% 29.71 in
(1006 mb)
NNW 5.8 mph
(NNW 9 kph)
0.24 in
(6.10 mm)
3SM
05:54
Overcast
Heavy Rain
50°F / 10°C 48°F / 9°C 94% 29.74 in
(1007 mb)
N 9.2 mph
(N 15 kph)
0.43 in
(10.92 mm)
2SM
05:51
Overcast
Heavy Rain
50°F / 10°C 48°F / 9°C 94% 29.74 in
(1007 mb)
N 9.2 mph
(N 15 kph)
0.39 in
(9.91 mm)
2 1/2SM
05:24
Overcast
Heavy Rain
50°F / 10°C 48°F / 9°C 94% 29.74 in
(1007 mb)
NNE 15 mph
(NNE 24 kph)
0.17 in
(4.32 mm)
4SM
04:54
Overcast
Heavy Rain
50°F / 10°C 48°F / 9°C 94% 29.74 in
(1007 mb)
NE 18.4 mph
(NE 30 kph)
0.18 in
(4.57 mm)
3SM
04:40
Overcast
Light Rain
50°F / 10°C 48°F / 9°C 94% 29.74 in
(1007 mb)
NE 17.3 mph
(NE 28 kph)
0.14 in
(3.56 mm)
4SM
04:33
Overcast
Light Rain
50°F / 10°C 46°F / 8°C 88% 29.74 in
(1007 mb)
NE 21.9 mph
(NE 35 kph)
0.14 in
(3.56 mm)
2 1/2SM
04:01
Overcast
Light Rain
48°F / 9°C 46°F / 8°C 94% 29.74 in
(1007 mb)
NNE 15 mph
(NNE 24 kph)
0.03 in
(0.76 mm)
4SM
03:54
Overcast
Rain
48°F / 9°C 46°F / 8°C 94% 29.74 in
(1007 mb)
NE 16.1 mph
(NE 26 kph)
0.23 in
(5.84 mm)
3SM
03:35
Overcast
Light Rain
48°F / 9°C 46°F / 8°C 94% 29.74 in
(1007 mb)
NNE 13.8 mph
(NNE 22 kph)
0.16 in
(4.06 mm)
5SM
03:23
Overcast
Heavy Rain
48°F / 9°C 46°F / 8°C 94% 29.77 in
(1008 mb)
NNE 16.1 mph
(NNE 26 kph)
0.13 in
(3.30 mm)
2 1/2SM
03:12
Overcast
Heavy Rain
48°F / 9°C 46°F / 8°C 94% 29.77 in
(1008 mb)
NNE 15 mph
(NNE 24 kph)
0.06 in
(1.52 mm)
4SM
03:03
Overcast
Thunder Storms
48°F / 9°C 46°F / 8°C 94% 29.77 in
(1008 mb)
NE 17.3 mph
(NE 28 kph)
0.03 in
(0.76 mm)
4SM
03:00
Overcast
Thunder Storms
48°F / 9°C 46°F / 8°C 94% 29.77 in
(1008 mb)
NNE 18.4 mph
(NNE 30 kph)
0.02 in
(0.51 mm)
3SM
02:54
Overcast
Thunder Storms
48°F / 9°C 46°F / 8°C 94% 29.77 in
(1008 mb)
NNE 19.6 mph
(NNE 32 kph)
0.38 in
(9.65 mm)
1 3/4SM
02:50
Overcast
Thunder Storms
48°F / 9°C 46°F / 8°C 94% 29.77 in
(1008 mb)
N 17.3 mph
(N 28 kph)
0.35 in
(8.89 mm)
1 3/4SM
02:43
Overcast
Thunder Storms
48°F / 9°C 46°F / 8°C 94% 29.77 in
(1008 mb)
NE 16.1 mph
(NE 26 kph)
0.20 in
(5.08 mm)
2 1/2SM
02:35
Overcast
Thunder Storms
48°F / 9°C 46°F / 8°C 94% 29.77 in
(1008 mb)
N 18.4 mph
(N 30 kph)
0.11 in
(2.79 mm)
4SM
02:19
Overcast
Thunder Storms
48°F / 9°C 46°F / 8°C 94% 29.77 in
(1008 mb)
NNE 19.6 mph
(NNE 32 kph)
0.06 in
(1.52 mm)
3SM
02:15
Overcast
Heavy Rain
48°F / 9°C 46°F / 8°C 94% 29.77 in
(1008 mb)
NNE 18.4 mph
(NNE 30 kph)
0.05 in
(1.27 mm)
3SM
01:54
Overcast
Rain
48°F / 9°C 46°F / 8°C 94% 29.8 in
(1009 mb)
N 16.1 mph
(N 26 kph)
0.24 in
(6.10 mm)
3SM
01:50
Overcast
Heavy Rain
48°F / 9°C 46°F / 8°C 94% 29.8 in
(1009 mb)
NNE 17.3 mph
(NNE 28 kph)
0.23 in
(5.84 mm)
2SM
01:21
Overcast
Light Rain
48°F / 9°C 46°F / 8°C 94% 29.8 in
(1009 mb)
NE 18.4 mph
(NE 30 kph)
0.05 in
(1.27 mm)
7SM
01:12
Overcast
Rain
48°F / 9°C 46°F / 8°C 94% 29.83 in
(1010 mb)
NE 18.4 mph
(NE 30 kph)
0.04 in
(1.02 mm)
4SM
01:05
Overcast
Rain
48°F / 9°C 46°F / 8°C 94% 29.83 in
(1010 mb)
NNE 18.4 mph
(NNE 30 kph)
0.03 in
(0.76 mm)
4SM
00:54
Overcast
Heavy Rain
48°F / 9°C 46°F / 8°C 94% 29.83 in
(1010 mb)
NE 21.9 mph
(NE 35 kph)
0.34 in
(8.64 mm)
2SM
00:49
Overcast
Heavy Rain
48°F / 9°C 46°F / 8°C 94% 29.83 in
(1010 mb)
NE 23 mph
(NE 37 kph)
0.31 in
(7.87 mm)
2SM
00:36
Overcast
Heavy Rain
48°F / 9°C 46°F / 8°C 94% 29.8 in
(1009 mb)
NNE 20.7 mph
(NNE 33 kph)
0.21 in
(5.33 mm)
2SM
Time Weather Temperature Dewpoint Humidity Pressure Winds Precip Visibility


Weather for websites

WeatherForYou.com, LLC is not responsible for any damages or problems caused by this service. Current weather conditions are obtained from the closest station including government and personal stations which may have varying degrees of accuracy. Weather forecasts are derived from the NOAA NDFD. Like all things, this site belongs to Jesus Christ... He just trusts me to maintain it. If you have any questions or comments email webmaster@weatherforyou.com

Copyright © 2014, WeatherForYou.com LLC. All rights reserved.